Retour au catalogue

QIANFAN-18

ActifCommunicationsPO
NORAD 60396·PAYLOAD·🇨🇳 China

Lancé Aug 6, 2024 depuis Taiyuan Satellite Launch Center

Loading…

Prochains Passages (prochaines 24 heures)

TLE

FraisSource: Space-Track

Époque: Sep 14, 2026, 14:20 UTC

1 60396U 24140T   26257.59788825  .00000006  00000-0 -99703-5 0  9999
2 60396  88.9670 270.3446 0016328 109.2583 251.0336 13.51020913104772

Suivez QIANFAN-18 en temps réel avec AllMySat

Download on the App Store